Weather History for Hallock, MN

Change the Weather History Date:

Wednesday, June 19, 2013

  Actual Average Record
Temperature  
Mean Temperature 70 °F -  
Max Temperature 86 °F 75 °F 93 °F (1933)
Min Temperature 55 °F 52 °F 34 °F (1940)
Cooling Degree Days 6    
Growing Degree Days 20 (Base 50)    
Moisture  
Dew Point 54 °F    
Average Humidity 55    
Maximum Humidity 88    
Minimum Humidity 31    
Precipitation  
Precipitation 0.00 in - - ()
Sea Level Pressure  
Sea Level Pressure 29.91 in    
Wind  
Wind Speed 6 mph (ESE)    
Max Wind Speed 10 mph    
Max Gust Speed -    
Visibility 10 miles    
Events      
Averages and records for this station are not official NWS values.
T = Trace of Precipitation, MM = Missing Value Source: NWS Daily Summary

Daily Weather History Graph

Daily Weather History Graph

Search for Another Location

Airport:

Trip Planner

Search our weather history database for the weather conditions in past years. The results will help you decide how hot, cold, wet, or windy it might be!

Date:

Astronomy

Jun. 19, 2013 Rise Set
Actual Time 5:24 AM CDT 9:34 PM CDT
Civil Twilight 4:41 AM CDT 10:16 PM CDT
Nautical Twilight 3:41 AM CDT 11:17 PM CDT
Astronomical Twilight 2:01 AM CDT 12:56 AM CDT
Moon 5:14 PM CDT 2:27 AM CDT
Length of Visible Light 17h 34m
Length of Day
16h 09m
Waxing Gibbous, 80% of the Moon is Illuminated
Jun 19
Waxing Gibbous
Jun 23
Full
Jun 29
Last Quarter
Jul 8
New
Jul 15
First Quarter

Hourly Weather History & Observations

Time (CDT) Temp. Heat Index Dew Point Humidity Pressure Visibility Wind Dir Wind Speed Gust Speed Precip Events Conditions
12:13 AM 60.8 °F - 51.8 °F 72% 29.93 in 10.0 mi SSE 8.1 mph - N/A   Clear
12:33 AM 60.8 °F - 51.8 °F 72% 29.93 in 10.0 mi SSE 8.1 mph - N/A   Clear
12:53 AM 60.8 °F - 51.8 °F 72% 29.93 in 10.0 mi SE 8.1 mph - N/A   Clear
1:13 AM 60.8 °F - 51.8 °F 72% 29.93 in 10.0 mi SSE 8.1 mph - N/A   Scattered Clouds
1:33 AM 60.8 °F - 50.0 °F 68% 29.93 in 10.0 mi SSE 8.1 mph - N/A   Scattered Clouds
1:53 AM 62.6 °F - 51.8 °F 68% 29.94 in 10.0 mi SSE 8.1 mph - N/A   Mostly Cloudy
2:13 AM 62.6 °F - 51.8 °F 68% 29.94 in 10.0 mi SSE 9.2 mph - N/A   Mostly Cloudy
2:33 AM 62.6 °F - 51.8 °F 68% 29.94 in 10.0 mi SSE 8.1 mph - N/A   Mostly Cloudy
2:53 AM 62.6 °F - 51.8 °F 68% 29.94 in 10.0 mi SSE 5.8 mph - N/A   Mostly Cloudy
3:13 AM 62.6 °F - 51.8 °F 68% 29.94 in 10.0 mi SSE 4.6 mph - N/A   Mostly Cloudy
3:33 AM 60.8 °F - 51.8 °F 72% 29.94 in 10.0 mi SSE 4.6 mph - N/A   Mostly Cloudy
3:53 AM 59.0 °F - 51.8 °F 77% 29.94 in 10.0 mi SSE 5.8 mph - N/A   Scattered Clouds
4:13 AM 59.0 °F - 51.8 °F 77% 29.93 in 10.0 mi SE 8.1 mph - N/A   Clear
4:33 AM 57.2 °F - 51.8 °F 82% 29.93 in 10.0 mi SE 9.2 mph - N/A   Clear
4:53 AM 57.2 °F - 51.8 °F 82% 29.93 in 10.0 mi SE 9.2 mph - N/A   Clear
5:13 AM 57.2 °F - 51.8 °F 82% 29.92 in 10.0 mi SSE 9.2 mph - N/A   Clear
5:33 AM 55.4 °F - 51.8 °F 88% 29.93 in 10.0 mi SSE 6.9 mph - N/A   Clear
5:53 AM 55.4 °F - 51.8 °F 88% 29.93 in 10.0 mi SSE 6.9 mph - N/A   Clear
6:13 AM 57.2 °F - 51.8 °F 82% 29.94 in 10.0 mi SE 5.8 mph - N/A   Clear
6:33 AM 57.2 °F - 51.8 °F 82% 29.94 in 10.0 mi SSE 4.6 mph - N/A   Clear
6:53 AM 60.8 °F - 53.6 °F 77% 29.94 in 10.0 mi Calm Calm - N/A   Clear
7:13 AM 60.8 °F - 53.6 °F 77% 29.93 in 10.0 mi SE 3.5 mph - N/A   Clear
7:33 AM 62.6 °F - 53.6 °F 72% 29.93 in 10.0 mi South 5.8 mph - N/A   Clear
7:53 AM 66.2 °F - 55.4 °F 68% 29.93 in 10.0 mi South 5.8 mph - N/A   Clear
8:13 AM 66.2 °F - 55.4 °F 68% 29.94 in 10.0 mi South 5.8 mph - N/A   Clear
8:33 AM 66.2 °F - 55.4 °F 68% 29.95 in 10.0 mi SSW 5.8 mph - N/A   Scattered Clouds
8:53 AM 69.8 °F - 57.2 °F 64% 29.94 in 10.0 mi SSW 5.8 mph - N/A   Scattered Clouds
9:13 AM 71.6 °F - 55.4 °F 57% 29.94 in 10.0 mi SSW 3.5 mph - N/A   Scattered Clouds
9:33 AM 71.6 °F - 57.2 °F 60% 29.94 in 10.0 mi Calm Calm - N/A   Clear
9:54 AM 73.4 °F - 55.4 °F 53% 29.94 in 10.0 mi Calm Calm - N/A   Clear
10:13 AM 75.2 °F - 59.0 °F 57% 29.93 in 10.0 mi Calm Calm - N/A   Clear
10:33 AM 75.2 °F - 57.2 °F 53% 29.93 in 10.0 mi Calm Calm - N/A   Clear
10:54 AM 77.0 °F - 59.0 °F 54% 29.93 in 10.0 mi Calm Calm - N/A   Clear
11:13 AM 78.8 °F - 55.4 °F 44% 29.92 in 10.0 mi Calm Calm - N/A   Clear
11:33 AM 78.8 °F - 55.4 °F 44% 29.92 in 10.0 mi NE 4.6 mph - N/A   Clear
11:53 AM 78.8 °F - 53.6 °F 42% 29.92 in 10.0 mi Calm Calm - N/A   Clear
12:13 PM 80.6 °F 80.3 °F 53.6 °F 39% 29.91 in 10.0 mi Calm Calm - N/A   Clear
12:34 PM 80.6 °F - 51.8 °F 37% 29.91 in 10.0 mi NNW 3.5 mph - N/A   Clear
12:53 PM 80.6 °F 80.3 °F 53.6 °F 39% 29.90 in 10.0 mi Calm Calm - N/A   Clear
1:13 PM 82.4 °F - 51.8 °F 35% 29.89 in 10.0 mi Calm Calm - N/A   Clear
1:34 PM 80.6 °F - 51.8 °F 37% 29.89 in 10.0 mi Calm Calm - N/A   Clear
1:53 PM 80.6 °F 80.3 °F 53.6 °F 39% 29.89 in 10.0 mi NNW 3.5 mph - N/A   Clear
2:13 PM 82.4 °F 81.4 °F 53.6 °F 37% 29.89 in 10.0 mi North 3.5 mph - N/A   Clear
2:33 PM 82.4 °F - 51.8 °F 35% 29.89 in 10.0 mi Calm Calm - N/A   Clear
2:53 PM 82.4 °F 81.4 °F 53.6 °F 37% 29.88 in 10.0 mi Calm Calm - N/A   Clear
3:13 PM 82.4 °F 81.4 °F 53.6 °F 37% 29.88 in 10.0 mi NNE 5.8 mph - N/A   Clear
3:32 PM 84.2 °F 82.8 °F 53.6 °F 35% 29.88 in 10.0 mi NNE 5.8 mph - N/A   Clear
3:53 PM 84.2 °F 82.8 °F 53.6 °F 35% 29.88 in 10.0 mi Calm Calm - N/A   Clear
4:13 PM 84.2 °F 82.8 °F 53.6 °F 35% 29.87 in 10.0 mi NE 3.5 mph - N/A   Clear
4:33 PM 84.2 °F - 51.8 °F 33% 29.87 in 10.0 mi ENE 3.5 mph - N/A   Clear
4:53 PM 86.0 °F - 51.8 °F 31% 29.87 in 10.0 mi East 5.8 mph - N/A   Clear
5:13 PM 84.2 °F - 51.8 °F 33% 29.87 in 10.0 mi East 6.9 mph - N/A   Clear
5:33 PM 82.4 °F - 51.8 °F 35% 29.86 in 10.0 mi East 5.8 mph - N/A   Clear
5:53 PM 84.2 °F 82.8 °F 53.6 °F 35% 29.86 in 10.0 mi Calm Calm - N/A   Clear
6:13 PM 84.2 °F 82.8 °F 53.6 °F 35% 29.86 in 10.0 mi East 6.9 mph - N/A   Scattered Clouds
6:33 PM 84.2 °F 82.8 °F 53.6 °F 35% 29.86 in 10.0 mi East 4.6 mph - N/A   Clear
6:53 PM 82.4 °F 81.7 °F 55.4 °F 39% 29.87 in 10.0 mi ENE 5.8 mph - N/A   Clear
7:13 PM 82.4 °F 81.4 °F 53.6 °F 37% 29.87 in 10.0 mi ENE 5.8 mph - N/A   Clear
7:33 PM 82.4 °F 81.4 °F 53.6 °F 37% 29.87 in 10.0 mi ENE 5.8 mph - N/A   Clear
7:53 PM 80.6 °F 80.5 °F 55.4 °F 42% 29.87 in 10.0 mi ENE 4.6 mph - N/A   Clear
8:13 PM 80.6 °F 80.5 °F 55.4 °F 42% 29.87 in 10.0 mi NE 6.9 mph - N/A   Clear
8:33 PM 78.8 °F - 55.4 °F 44% 29.87 in 10.0 mi ENE 4.6 mph - N/A   Clear
8:53 PM 77.0 °F - 57.2 °F 50% 29.87 in 10.0 mi ENE 5.8 mph - N/A   Clear
9:13 PM 75.2 °F - 57.2 °F 53% 29.88 in 10.0 mi ENE 6.9 mph - N/A   Clear
9:33 PM 73.4 °F - 55.4 °F 53% 29.89 in 10.0 mi ENE 6.9 mph - N/A   Clear
9:53 PM 73.4 °F - 57.2 °F 57% 29.89 in 10.0 mi ENE 6.9 mph - N/A   Clear
10:13 PM 71.6 °F - 55.4 °F 57% 29.90 in 10.0 mi ENE 5.8 mph - N/A   Clear
10:33 PM 69.8 °F - 55.4 °F 60% 29.91 in 10.0 mi ENE 6.9 mph - N/A   Clear
10:53 PM 69.8 °F - 53.6 °F 56% 29.90 in 10.0 mi ENE 5.8 mph - N/A   Clear
11:13 PM 68.0 °F - 53.6 °F 60% 29.90 in 10.0 mi ENE 5.8 mph - N/A   Clear
11:33 PM 69.8 °F - 53.6 °F 56% 29.90 in 10.0 mi ENE 10.4 mph - N/A   Clear
11:53 PM 71.6 °F - 55.4 °F 57% 29.90 in 10.0 mi ENE 10.4 mph - N/A   Clear